Location: *
(48.4333°N, 5.0333°W)
Time: 01:22:10
(UTC+00:00)

LilacSat-2 - Pass Details

Date: 31 October 2021
Orbit: 511 x 532 km, 97.5° (Epoch: 01 December)

Event Time Altitude Azimuth Distance (km) Brightness Sun altitude
Rises 18:29:28 0° 213° (SSW) 2,629 ? -14.9°
Reaches altitude 10° 18:32:35 10° 243° (WSW) 1,744 ? -15.4°
Maximum altitude 18:34:21 13° 271° (W) 1,570 ? -15.7°
Drops below altitude 10° 18:36:07 10° 299° (WNW) 1,747 ? -16.0°
Sets 18:39:16 0° 328° (NNW) 2,638 ? -16.5°
